Weather History for KMRH - January, 2015

Change the Weather History Date:

Sunday, January 18, 2015

  Actual Average Record
Temperature  
Mean Temperature 54 °F -  
Max Temperature 62 °F 54 °F 76 °F (1986)
Min Temperature 42 °F 33 °F 13 °F (1977)
Degree Days  
Heating Degree Days 11    
Growing Degree Days 4 (Base 50)    
Moisture  
Dew Point 52 °F    
Average Humidity 88    
Maximum Humidity 100    
Minimum Humidity 69    
Precipitation  
Precipitation 0.52 in - - ()
Sea Level Pressure  
Sea Level Pressure 29.97 in    
Wind  
Wind Speed 12 mph (SSW)    
Max Wind Speed 24 mph    
Max Gust Speed 33 mph    
Visibility 8 miles    
Events Rain    
Averages and records for this station are not official NWS values.
T = Trace of Precipitation, MM = Missing Value Source: NWS Daily Summary

Daily Weather History Graph

Daily Weather History Graph

Search for Another Location

Airport or City:

Trip Planner

Search our weather history database for the weather conditions in past years. The results will help you decide how hot, cold, wet, or windy it might be!

Date:

Astronomy

Jan. 18, 2015 Rise Set
Actual Time 7:12 AM EST 5:21 PM EST
Civil Twilight 6:45 AM EST 5:48 PM EST
Nautical Twilight 6:14 AM EST 6:19 PM EST
Astronomical Twilight 5:44 AM EST 6:49 PM EST
Moon 5:06 AM EST (1/18) 3:42 PM EST (1/18)
Length of Visible Light 11h 03m
Length of Day
10h 08m
Waning Crescent, 5% of the Moon is Illuminated
Jan 18
Waning Crescent
Jan 20
New
Jan 26
First Quarter
Feb 3
Full
Feb 11
Last Quarter

Hourly Weather History & Observations

Time (EST) Temp. Dew Point Humidity Pressure Visibility Wind Dir Wind Speed Gust Speed Precip Events Conditions
12:58 AM 57.0 °F 48.9 °F 74% 30.19 in 10.0 mi SE 11.5 mph 18.4 mph N/A   Overcast
1:58 AM 57.0 °F 48.9 °F 74% 30.17 in 10.0 mi SE 11.5 mph - N/A   Clear
2:58 AM 57.0 °F 48.9 °F 74% 30.16 in 10.0 mi SSE 11.5 mph - N/A   Clear
3:58 AM 57.9 °F 48.9 °F 72% 30.12 in 10.0 mi SSE 12.7 mph 21.9 mph N/A   Partly Cloudy
4:58 AM 59.0 °F 48.9 °F 69% 30.09 in 10.0 mi SE 15.0 mph - N/A   Clear
5:58 AM 59.0 °F 51.1 °F 75% 30.06 in 10.0 mi SSE 16.1 mph 23.0 mph N/A   Clear
6:58 AM 60.1 °F 51.1 °F 72% 30.03 in 10.0 mi SSE 19.6 mph 26.5 mph N/A   Mostly Cloudy
7:58 AM 61.0 °F 51.1 °F 70% 30.01 in 10.0 mi SSE 15.0 mph 24.2 mph N/A   Overcast
8:58 AM 62.1 °F 52.0 °F 70% 29.98 in 10.0 mi SSE 17.3 mph 25.3 mph N/A   Overcast
9:58 AM 60.1 °F 54.0 °F 80% 29.97 in 9.0 mi South 20.7 mph 27.6 mph 0.02 in Rain Light Rain
10:27 AM 57.0 °F 55.0 °F 93% 29.99 in 2.5 mi SW 20.7 mph 28.8 mph 0.18 in Rain Heavy Rain
10:29 AM 57.0 °F 55.0 °F 93% 29.99 in 1.8 mi SW 24.2 mph 33.4 mph 0.24 in Rain Heavy Rain
10:32 AM 55.9 °F 55.0 °F 97% 29.99 in 1.0 mi WSW 17.3 mph 33.4 mph 0.35 in Rain Heavy Rain
10:38 AM 55.9 °F 55.0 °F 97% 29.98 in 1.2 mi WSW 12.7 mph 33.4 mph 0.38 in Rain Heavy Rain
10:42 AM 55.9 °F 55.0 °F 97% 29.98 in 3.0 mi WSW 10.4 mph - 0.39 in Rain Heavy Rain
10:58 AM 55.9 °F 55.9 °F 100% 29.97 in 5.0 mi SW 6.9 mph - 0.42 in Rain Light Rain
11:30 AM 55.0 °F 55.0 °F 100% 29.96 in 4.0 mi SSW 8.1 mph - 0.03 in Rain Light Rain
11:39 AM 55.0 °F 55.0 °F 100% 29.95 in 4.0 mi SSW 9.2 mph - 0.03 in Rain Light Rain
11:58 AM 55.0 °F 55.0 °F 100% 29.94 in 5.0 mi SW 9.2 mph - 0.05 in Rain Light Rain
12:12 PM 55.9 °F 55.9 °F 100% 29.91 in 6.0 mi SW 8.1 mph - 0.01 in Rain Light Rain
12:27 PM 55.9 °F 55.9 °F 100% 29.91 in 6.0 mi SW 10.4 mph - 0.01 in Rain Light Rain
12:35 PM 55.9 °F 55.9 °F 100% 29.90 in 5.0 mi SW 8.1 mph - 0.02 in Rain Light Rain
12:58 PM 55.9 °F 55.9 °F 100% 29.89 in 6.0 mi SW 5.8 mph - 0.03 in Rain Light Rain
1:17 PM 55.9 °F 55.9 °F 100% 29.88 in 10.0 mi WSW 8.1 mph - 0.00 in Rain Light Rain
1:58 PM 55.0 °F 55.0 °F 100% 29.86 in 8.0 mi SW 6.9 mph - 0.00 in   Mostly Cloudy
2:37 PM 55.9 °F 55.9 °F 100% 29.84 in 10.0 mi SW 9.2 mph - N/A   Scattered Clouds
2:58 PM 55.9 °F 55.9 °F 100% 29.84 in 10.0 mi SSW 9.2 mph - 0.00 in   Partly Cloudy
3:58 PM 55.9 °F 54.0 °F 93% 29.83 in 10.0 mi SSW 11.5 mph - N/A   Clear
4:58 PM 55.0 °F 52.0 °F 89% 29.85 in 10.0 mi WSW 8.1 mph - N/A   Clear
5:58 PM 53.1 °F 48.9 °F 86% 29.87 in 10.0 mi WSW 8.1 mph - N/A   Clear
6:58 PM 52.0 °F 48.0 °F 86% 29.89 in 10.0 mi WSW 5.8 mph - N/A   Mostly Cloudy
7:58 PM 52.0 °F 46.0 °F 80% 29.92 in 10.0 mi West 9.2 mph - N/A   Clear
8:58 PM 50.0 °F 44.1 °F 80% 29.95 in 10.0 mi WNW 8.1 mph - N/A   Clear
9:58 PM 46.9 °F 42.1 °F 83% 29.97 in 10.0 mi West 5.8 mph - N/A   Clear
10:58 PM 46.9 °F 39.9 °F 77% 29.99 in 10.0 mi WSW 5.8 mph - N/A   Clear
11:58 PM 42.1 °F 37.9 °F 85% 29.99 in 10.0 mi Calm Calm - N/A   Clear